Regional Weather Roundup
Issued by NWS Goodland, KS

Home | Current Version | Previous Version | Text Only | Print | Product List | Glossary Off
Versions: 1 2 3 4 5 6 7 8 9 10 11 12 13 14 15 16 17 18 19 20 21 22 23 24 25 26 27 28 29 30 31 32 33 34 35 36 37 38 39 40 41 42 43 44 45 46 47 48 49 50

000
ASUS43 KGLD 301559
RWRGLD

GOODLAND FORECAST AREA HOURLY WEATHER ROUNDUP
NATIONAL WEATHER SERVICE GOODLAND KS
1000 AM MDT MON MAY 30 2016

...OFFICIAL OBSERVATIONS...

CITY           SKY/WX    TMP DP  RH WIND       PRES   REMARKS
GOODLAND KS    SUNNY     69  54  58 S9        29.99F
HILL CITY KS   SUNNY     76  55  48 SW9       30.00F
IMPERIAL NEB   SUNNY     69  55  60 S6        29.98F
MCCOOK NEB     SUNNY     73  53  49 S6        29.98F
AKRON CO       SUNNY     68  49  50 W5        30.02F
BURLINGTON CO  SUNNY     70  51  51 SW12      30.01F
LIMON CO       SUNNY     65  51  60 SE5       30.06F
$$

...UNOFFICIAL OBSERVATIONS...

CITY           SKY/WX    TMP DP  RH WIND       PRES   REMARKS
GOVE KS          N/A     80  32  17 MISG        N/A
LENORA KS        N/A     72  32  23 MISG        N/A
KIT CARSON CO    N/A     66  52  60 MISG        N/A
YUMA CO          N/A     70  53  55 CALM        N/A
$$




USA.gov is the U.S. government's official web portal to all federal, state and local government web resources and services.